Location: Hoyos del Collado
(40.3594°N, 5.2003°W)
Time: 02:42:17
(UTC+00:00)

Terra - Pass Details

Date: 18 April 2024
Orbit: 691 x 696 km, 98.0° (Epoch: 25 May)

Event Time Altitude Azimuth Distance (km) Brightness Sun altitude
Exits shadow 22:19:23 36° 288° (WNW) 1,103 3.1 -31.3°
Drops below altitude 10° 22:22:58 10° 331° (NNW) 2,163 5.2 -31.7°
Sets 22:25:22 0° 340° (NNW) 3,084 6.2 -32.0°
